| time (UTC) | temp F | wind direction | speed MPH | gust MPH | rain 1hr in | rain 24hr in | rain mn in | humidity % | barometer mb |
| 20260906154500 | 53 | 138 | 0.0 | 0.0 | 0.00 | 0.03 | 0.00 | 86 | 1016.0 |
| 20260906151500 | 51 | 138 | 0.0 | 0.0 | 0.00 | 0.03 | 0.00 | 90 | 1015.7 |
| 20260906150001 | 51 | 138 | 0.0 | 0.0 | 0.00 | 0.03 | 0.00 | 90 | 1015.7 |
| 20260906144500 | 50 | 138 | 0.0 | 0.0 | 0.00 | 0.03 | 0.00 | 89 | 1015.5 |
| 20260906143001 | 50 | 138 | 0.0 | 2.0 | 0.00 | 0.03 | 0.00 | 89 | 1015.6 |
| 20260906140003 | 50 | 92 | 0.0 | 0.0 | 0.00 | 0.03 | 0.00 | 90 | 1015.4 |
| 20260906134502 | 50 | 92 | 0.0 | 0.0 | 0.00 | 0.03 | 0.00 | 90 | 1015.5 |
| 20260906133001 | 50 | 92 | 0.0 | 0.0 | 0.00 | 0.03 | 0.00 | 90 | 1015.3 |
| 20260906130002 | 51 | 92 | 0.0 | 0.0 | 0.00 | 0.03 | 0.00 | 89 | 1015.4 |
| 20260906124502 | 51 | 92 | 0.0 | 0.0 | 0.00 | 0.03 | 0.00 | 88 | 1015.4 |
| 20260906123000 | 51 | 92 | 0.0 | 0.0 | 0.00 | 0.03 | 0.00 | 88 | 1015.5 |
| 20260906121500 | 51 | 92 | 0.0 | 0.0 | 0.00 | 0.03 | 0.00 | 89 | 1015.4 |
| 20260906120003 | 51 | 92 | 0.0 | 0.0 | 0.00 | 0.03 | 0.00 | 89 | 1015.5 |
| 20260906114500 | 51 | 92 | 0.0 | 0.0 | 0.00 | 0.03 | 0.00 | 89 | 1015.4 |
| 20260906113001 | 51 | 92 | 0.0 | 0.0 | 0.00 | 0.03 | 0.00 | 89 | 1015.4 |
| 20260906111500 | 52 | 92 | 0.0 | 0.0 | 0.00 | 0.03 | 0.00 | 88 | 1015.5 |
| 20260906104500 | 52 | 92 | 0.0 | 0.0 | 0.00 | 0.03 | 0.00 | 88 | 1015.8 |
| 20260906103000 | 52 | 92 | 0.0 | 0.0 | 0.00 | 0.03 | 0.00 | 88 | 1015.7 |
| 20260906100005 | 52 | 92 | 0.0 | 0.0 | 0.00 | 0.03 | 0.00 | 87 | 1015.7 |
| 20260906093000 | 53 | 92 | 0.0 | 0.0 | 0.00 | 0.03 | 0.00 | 87 | 1015.6 |
| 20260906090000 | 53 | 92 | 0.0 | 0.0 | 0.00 | 0.03 | 0.00 | 86 | 1015.5 |
| 20260906084501 | 53 | 92 | 0.0 | 0.0 | 0.00 | 0.03 | 0.00 | 86 | 1015.6 |
| 20260906083001 | 53 | 92 | 0.0 | 0.0 | 0.00 | 0.03 | 0.00 | 85 | 1015.9 |
| 20260906081500 | 54 | 92 | 0.0 | 0.0 | 0.00 | 0.03 | 0.00 | 85 | 1015.7 |
| 20260906080005 | 54 | 92 | 0.0 | 0.0 | 0.00 | 0.03 | 0.00 | 85 | 1015.7 |
| 20260906074503 | 55 | 92 | 0.0 | 0.0 | 0.00 | 0.03 | 0.00 | 84 | 1015.8 |
| 20260906073004 | 55 | 92 | 0.0 | 0.0 | 0.00 | 0.03 | 0.00 | 84 | 1015.6 |
| 20260906071503 | 55 | 92 | 0.0 | 0.0 | 0.00 | 0.03 | 0.00 | 84 | 1015.8 |
| 20260906070008 | 55 | 92 | 0.0 | 0.0 | 0.00 | 0.03 | 0.03 | 83 | 1015.9 |
| 20260906063003 | 56 | 92 | 0.0 | 0.0 | 0.00 | 0.03 | 0.03 | 83 | 1015.9 |
| 20260906054503 | 57 | 92 | 0.0 | 0.0 | 0.00 | 0.03 | 0.03 | 82 | 1016.0 |
| 20260906053003 | 57 | 92 | 0.0 | 0.0 | 0.00 | 0.03 | 0.03 | 81 | 1016.1 |
| 20260906051502 | 57 | 92 | 0.0 | 0.0 | 0.00 | 0.03 | 0.03 | 80 | 1016.2 |
| 20260906050005 | 58 | 92 | 0.0 | 0.0 | 0.00 | 0.03 | 0.03 | 79 | 1016.3 |
| 20260906044503 | 58 | 92 | 0.0 | 0.0 | 0.00 | 0.03 | 0.03 | 78 | 1016.4 |
| 20260906040003 | 59 | 92 | 0.0 | 0.0 | 0.00 | 0.03 | 0.03 | 75 | 1016.3 |
| 20260906034502 | 60 | 92 | 0.0 | 0.0 | 0.00 | 0.03 | 0.03 | 73 | 1016.3 |
| 20260906033002 | 61 | 92 | 0.0 | 0.0 | 0.00 | 0.03 | 0.03 | 72 | 1016.2 |
| 20260906031502 | 62 | 92 | 0.0 | 0.0 | 0.00 | 0.03 | 0.03 | 71 | 1016.1 |
| 20260906024502 | 63 | 92 | 0.0 | 0.0 | 0.00 | 0.03 | 0.03 | 69 | 1016.1 |
| 20260906023002 | 64 | 92 | 0.0 | 0.0 | 0.00 | 0.03 | 0.03 | 67 | 1016.1 |
| 20260906021502 | 64 | 92 | 0.0 | 0.0 | 0.00 | 0.03 | 0.03 | 65 | 1016.0 |
| 20260906020002 | 65 | 92 | 0.0 | 0.0 | 0.00 | 0.03 | 0.03 | 65 | 1015.9 |
| 20260906014503 | 66 | 92 | 0.0 | 2.0 | 0.00 | 0.03 | 0.03 | 59 | 1015.8 |
| 20260906013001 | 66 | 92 | 0.0 | 3.0 | 0.00 | 0.03 | 0.03 | 58 | 1015.8 |
| 20260906011502 | 67 | 84 | 0.0 | 2.0 | 0.00 | 0.03 | 0.03 | 57 | 1015.8 |
| 20260906010006 | 67 | 92 | 1.0 | 3.0 | 0.00 | 0.03 | 0.03 | 56 | 1015.8 |
| 20260906004502 | 67 | 158 | 0.0 | 2.0 | 0.00 | 0.03 | 0.03 | 58 | 1015.8 |
| 20260906003003 | 67 | 166 | 1.0 | 4.0 | 0.00 | 0.03 | 0.03 | 57 | 1015.7 |
| 20260906001503 | 66 | 27 | 0.0 | 2.0 | 0.00 | 0.03 | 0.03 | 57 | 1015.7 |
| 20260906000007 | 66 | 141 | 0.0 | 2.0 | 0.00 | 0.03 | 0.03 | 58 | 1015.6 |
| 20260905234502 | 66 | 47 | 1.0 | 2.0 | 0.00 | 0.03 | 0.03 | 59 | 1015.8 |
| 20260905231502 | 66 | 154 | 1.0 | 4.0 | 0.00 | 0.03 | 0.03 | 59 | 1015.8 |
| 20260905230004 | 65 | 192 | 1.0 | 3.0 | 0.00 | 0.03 | 0.03 | 60 | 1015.9 |
| 20260905224503 | 65 | 166 | 0.0 | 0.0 | 0.00 | 0.03 | 0.03 | 64 | 1016.0 |
| 20260905223005 | 65 | 139 | 0.0 | 3.0 | 0.00 | 0.03 | 0.03 | 67 | 1016.1 |
| 20260905221502 | 64 | 141 | 0.0 | 2.0 | 0.00 | 0.03 | 0.03 | 63 | 1016.4 |
| 20260905220009 | 64 | 104 | 0.0 | 3.0 | 0.00 | 0.03 | 0.03 | 64 | 1016.5 |
| 20260905214503 | 63 | 93 | 0.0 | 2.0 | 0.00 | 0.03 | 0.03 | 73 | 1016.6 |
| 20260905213003 | 63 | 90 | 0.0 | 4.0 | 0.00 | 0.03 | 0.03 | 73 | 1016.8 |
| 20260905211504 | 61 | 84 | 0.0 | 3.0 | 0.00 | 0.03 | 0.03 | 76 | 1016.9 |
| 20260905204502 | 59 | 121 | 0.0 | 2.0 | 0.01 | 0.03 | 0.03 | 80 | 1017.2 |
| 20260905203003 | 58 | 186 | 0.0 | 2.0 | 0.01 | 0.03 | 0.03 | 81 | 1017.3 |
| 20260905201503 | 58 | 186 | 0.0 | 2.0 | 0.02 | 0.03 | 0.03 | 86 | 1017.4 |
| 20260905200006 | 57 | 193 | 0.0 | 2.0 | 0.03 | 0.03 | 0.03 | 88 | 1017.5 |
| 20260905194503 | 57 | 193 | 0.0 | 2.0 | 0.02 | 0.03 | 0.02 | 87 | 1017.6 |
| 20260905193001 | 57 | 183 | 0.0 | 2.0 | 0.02 | 0.03 | 0.02 | 88 | 1017.6 |
| 20260905191503 | 57 | 183 | 0.0 | 2.0 | 0.01 | 0.02 | 0.01 | 84 | 1017.8 |
| 20260905190003 | 58 | 183 | 0.0 | 2.0 | 0.00 | 0.01 | 0.00 | 83 | 1017.7 |
| 20260905184501 | 58 | 183 | 0.0 | 0.0 | 0.00 | 0.01 | 0.00 | 81 | 1017.7 |
| 20260905183001 | 57 | 183 | 0.0 | 0.0 | 0.00 | 0.01 | 0.00 | 79 | 1017.8 |
| 20260905181502 | 57 | 183 | 0.0 | 0.0 | 0.00 | 0.01 | 0.00 | 80 | 1017.9 |
| 20260905174502 | 56 | 183 | 0.0 | 0.0 | 0.00 | 0.01 | 0.00 | 83 | 1017.9 |
| 20260905173001 | 55 | 183 | 0.0 | 2.0 | 0.00 | 0.01 | 0.00 | 83 | 1017.9 |
| 20260905171502 | 55 | 155 | 0.0 | 0.0 | 0.00 | 0.01 | 0.00 | 85 | 1017.8 |
| 20260905164502 | 53 | 155 | 0.0 | 0.0 | 0.00 | 0.01 | 0.00 | 86 | 1017.6 |
| 20260905163002 | 53 | 155 | 0.0 | 0.0 | 0.00 | 0.01 | 0.00 | 86 | 1017.7 |
| 20260905160000 | 53 | 155 | 0.0 | 2.0 | 0.00 | 0.01 | 0.00 | 84 | 1017.6 |